| time (UTC) | temp F | wind direction | speed MPH | gust MPH | rain 1hr in | rain 24hr in | rain mn in | humidity % | barometer mb |
| 20260504150516 | 64 | 90 | 2.0 | 7.0 | 0.00 | 0.00 | 0.00 | 37 | 1008.6 |
| 20260504140515 | 59 | 68 | 2.0 | 10.0 | 0.00 | 0.00 | 0.00 | 45 | 1008.8 |
| 20260504130516 | 55 | 158 | 1.0 | 3.0 | 0.00 | 0.00 | 0.00 | 51 | 1008.9 |
| 20260504110517 | 41 | 0.0 | 0.0 | 0.00 | 0.00 | 0.00 | 72 | 1009.3 | |
| 20260504100517 | 38 | 0.0 | 0.0 | 0.00 | 0.00 | 0.00 | 76 | 1008.8 | |
| 20260504081537 | 42 | 0.0 | 0.0 | 0.00 | 0.00 | 0.00 | 61 | 1008.8 | |
| 20260504080516 | 43 | 0.0 | 0.0 | 0.00 | 0.00 | 0.00 | 63 | 1009.0 | |
| 20260504050537 | 43 | 0.0 | 0.0 | 0.00 | 0.00 | 0.00 | 64 | 1009.2 | |
| 20260504045516 | 42 | 0.0 | 0.0 | 0.00 | 0.00 | 0.00 | 64 | 1009.2 | |
| 20260504044516 | 42 | 0.0 | 0.0 | 0.00 | 0.00 | 0.00 | 67 | 1009.1 | |
| 20260504043516 | 42 | 0.0 | 0.0 | 0.00 | 0.00 | 0.00 | 62 | 1009.2 | |
| 20260504042516 | 42 | 0.0 | 0.0 | 0.00 | 0.00 | 0.00 | 71 | 1009.2 | |
| 20260504041516 | 41 | 0.0 | 0.0 | 0.00 | 0.00 | 0.00 | 73 | 1009.1 | |
| 20260504040516 | 41 | 0.0 | 0.0 | 0.00 | 0.00 | 0.00 | 72 | 1009.2 | |
| 20260504035517 | 40 | 0.0 | 0.0 | 0.00 | 0.00 | 0.00 | 75 | 1009.0 | |
| 20260504034516 | 40 | 0.0 | 0.0 | 0.00 | 0.00 | 0.00 | 72 | 1008.9 | |
| 20260504033516 | 40 | 0.0 | 0.0 | 0.00 | 0.00 | 0.00 | 72 | 1008.9 | |
| 20260504032516 | 41 | 0.0 | 0.0 | 0.00 | 0.00 | 0.00 | 69 | 1008.8 | |
| 20260504031516 | 41 | 0.0 | 0.0 | 0.00 | 0.00 | 0.00 | 68 | 1008.7 | |
| 20260504030538 | 40 | 0.0 | 0.0 | 0.00 | 0.00 | 0.00 | 66 | 1008.7 | |
| 20260504025516 | 40 | 0.0 | 0.0 | 0.00 | 0.00 | 0.00 | 62 | 1008.6 | |
| 20260504024516 | 41 | 0.0 | 0.0 | 0.00 | 0.00 | 0.00 | 63 | 1008.7 | |
| 20260504023536 | 41 | 0.0 | 0.0 | 0.00 | 0.00 | 0.00 | 58 | 1008.7 | |
| 20260504022536 | 41 | 0.0 | 0.0 | 0.00 | 0.00 | 0.00 | 60 | 1008.6 | |
| 20260504021517 | 41 | 0.0 | 0.0 | 0.00 | 0.00 | 0.00 | 60 | 1008.4 | |
| 20260504020517 | 41 | 0.0 | 0.0 | 0.00 | 0.00 | 0.00 | 60 | 1008.3 | |
| 20260504015516 | 41 | 0.0 | 1.0 | 0.00 | 0.00 | 0.00 | 61 | 1008.2 | |
| 20260504014516 | 41 | 0.0 | 0.0 | 0.00 | 0.00 | 0.00 | 58 | 1008.1 | |
| 20260504013517 | 40 | 0.0 | 1.0 | 0.00 | 0.00 | 0.00 | 64 | 1008.0 | |
| 20260504012516 | 40 | 0.0 | 0.0 | 0.00 | 0.00 | 0.00 | 65 | 1007.9 | |
| 20260504011517 | 40 | 0.0 | 0.0 | 0.00 | 0.00 | 0.00 | 67 | 1007.7 | |
| 20260504010517 | 40 | 0.0 | 0.0 | 0.00 | 0.00 | 0.00 | 67 | 1007.4 | |
| 20260504005516 | 40 | 0.0 | 0.0 | 0.00 | 0.00 | 0.00 | 69 | 1007.3 | |
| 20260504004516 | 40 | 0.0 | 0.0 | 0.00 | 0.00 | 0.00 | 68 | 1007.1 | |
| 20260504003516 | 41 | 0.0 | 0.0 | 0.00 | 0.00 | 0.00 | 66 | 1007.2 | |
| 20260504002516 | 42 | 0.0 | 0.0 | 0.00 | 0.00 | 0.00 | 63 | 1007.1 | |
| 20260504001517 | 42 | 0.0 | 0.0 | 0.00 | 0.00 | 0.00 | 59 | 1006.9 | |
| 20260504000516 | 43 | 0.0 | 0.0 | 0.00 | 0.00 | 0.00 | 56 | 1006.8 | |
| 20260503235617 | 44 | 0.0 | 0.0 | 0.00 | 0.00 | 0.00 | 56 | 1006.7 | |
| 20260503234517 | 45 | 0.0 | 0.0 | 0.00 | 0.00 | 0.00 | 52 | 1006.6 | |
| 20260503233516 | 46 | 0.0 | 0.0 | 0.00 | 0.00 | 0.00 | 53 | 1006.5 | |
| 20260503232516 | 46 | 0.0 | 0.0 | 0.00 | 0.00 | 0.00 | 49 | 1006.6 | |
| 20260503231516 | 47 | 0.0 | 1.0 | 0.00 | 0.00 | 0.00 | 48 | 1006.5 | |
| 20260503230516 | 48 | 0.0 | 1.0 | 0.00 | 0.00 | 0.00 | 47 | 1006.5 | |
| 20260503225537 | 48 | 315 | 1.0 | 3.0 | 0.00 | 0.00 | 0.00 | 42 | 1006.5 |
| 20260503224516 | 49 | 0.0 | 1.0 | 0.00 | 0.00 | 0.00 | 44 | 1006.5 | |
| 20260503223516 | 49 | 0.0 | 2.0 | 0.00 | 0.00 | 0.00 | 46 | 1006.3 | |
| 20260503222516 | 49 | 0.0 | 2.0 | 0.00 | 0.00 | 0.00 | 43 | 1006.4 | |
| 20260503221516 | 49 | 315 | 1.0 | 2.0 | 0.00 | 0.00 | 0.00 | 43 | 1006.2 |
| 20260503220516 | 49 | 315 | 1.0 | 3.0 | 0.00 | 0.00 | 0.00 | 46 | 1006.3 |
| 20260503215516 | 48 | 315 | 1.0 | 3.0 | 0.00 | 0.00 | 0.00 | 47 | 1006.4 |
| 20260503214536 | 48 | 315 | 2.0 | 4.0 | 0.00 | 0.00 | 0.00 | 44 | 1006.2 |
| 20260503213516 | 48 | 315 | 1.0 | 2.0 | 0.00 | 0.00 | 0.00 | 45 | 1006.1 |
| 20260503212515 | 49 | 315 | 1.0 | 6.0 | 0.00 | 0.00 | 0.00 | 44 | 1006.1 |
| 20260503211536 | 49 | 315 | 2.0 | 6.0 | 0.00 | 0.00 | 0.00 | 43 | 1006.2 |
| 20260503210516 | 49 | 0.0 | 2.0 | 0.00 | 0.00 | 0.00 | 44 | 1006.0 | |
| 20260503205516 | 49 | 315 | 1.0 | 5.0 | 0.00 | 0.00 | 0.00 | 41 | 1005.9 |
| 20260503204517 | 49 | 315 | 3.0 | 7.0 | 0.00 | 0.00 | 0.00 | 41 | 1005.8 |
| 20260503203516 | 50 | 315 | 2.0 | 6.0 | 0.00 | 0.00 | 0.00 | 40 | 1005.8 |
| 20260503202536 | 50 | 315 | 1.0 | 3.0 | 0.00 | 0.00 | 0.00 | 43 | 1005.9 |
| 20260503201516 | 50 | 315 | 2.0 | 7.0 | 0.00 | 0.00 | 0.00 | 41 | 1005.8 |
| 20260503200516 | 50 | 315 | 2.0 | 6.0 | 0.00 | 0.00 | 0.00 | 44 | 1005.8 |
| 20260503195517 | 49 | 315 | 1.0 | 4.0 | 0.00 | 0.00 | 0.00 | 44 | 1005.7 |
| 20260503194515 | 49 | 315 | 2.0 | 5.0 | 0.00 | 0.00 | 0.00 | 45 | 1005.9 |
| 20260503193516 | 49 | 315 | 2.0 | 6.0 | 0.00 | 0.00 | 0.00 | 44 | 1005.9 |
| 20260503192516 | 49 | 315 | 1.0 | 7.0 | 0.00 | 0.00 | 0.00 | 43 | 1005.9 |
| 20260503191516 | 49 | 315 | 1.0 | 2.0 | 0.00 | 0.00 | 0.00 | 43 | 1005.8 |
| 20260503190517 | 49 | 315 | 2.0 | 12.0 | 0.00 | 0.00 | 0.00 | 42 | 1005.9 |
| 20260503185516 | 49 | 315 | 2.0 | 6.0 | 0.00 | 0.00 | 0.00 | 48 | 1005.8 |
| 20260503184515 | 49 | 315 | 2.0 | 6.0 | 0.00 | 0.00 | 0.00 | 46 | 1005.8 |
| 20260503183515 | 50 | 293 | 2.0 | 5.0 | 0.00 | 0.00 | 0.00 | 44 | 1006.0 |
| 20260503182515 | 51 | 315 | 1.0 | 4.0 | 0.00 | 0.00 | 0.00 | 46 | 1005.9 |
| 20260503181535 | 50 | 68 | 2.0 | 8.0 | 0.00 | 0.00 | 0.00 | 46 | 1005.8 |
| 20260503180516 | 50 | 315 | 2.0 | 5.0 | 0.00 | 0.00 | 0.00 | 48 | 1005.7 |
| 20260503175515 | 49 | 315 | 2.0 | 5.0 | 0.00 | 0.00 | 0.00 | 46 | 1005.8 |
| 20260503174515 | 49 | 68 | 2.0 | 6.0 | 0.00 | 0.00 | 0.00 | 46 | 1005.7 |
| 20260503173516 | 50 | 315 | 2.0 | 5.0 | 0.00 | 0.00 | 0.00 | 44 | 1005.6 |
| 20260503172515 | 49 | 315 | 1.0 | 8.0 | 0.00 | 0.00 | 0.00 | 41 | 1005.5 |
| 20260503171515 | 49 | 315 | 2.0 | 4.0 | 0.00 | 0.00 | 0.00 | 45 | 1005.6 |
| 20260503170515 | 49 | 315 | 1.0 | 4.0 | 0.00 | 0.00 | 0.00 | 48 | 1005.6 |